TimeAKDT,TemperatureF,Dew PointF,Humidity,Sea Level PressureIn,VisibilityMPH,Wind Direction,Wind SpeedMPH,Gust SpeedMPH,PrecipitationIn,Events,Conditions,WindDirDegrees,DateUTC
12:16 AM,51.8,39.2,62,29.65,10.0,Calm,Calm,-,N/A,,Clear,0,2013-08-18 08:16:00
12:36 AM,53.6,37.4,54,29.65,10.0,North,3.5,-,N/A,,Clear,10,2013-08-18 08:36:00
12:56 AM,53.6,37.4,54,29.65,10.0,North,3.5,-,N/A,,Clear,360,2013-08-18 08:56:00
1:16 AM,48.2,37.4,66,29.65,10.0,Calm,Calm,-,N/A,,Clear,0,2013-08-18 09:16:00
1:36 AM,46.4,37.4,71,29.65,10.0,WSW,3.5,-,N/A,,Clear,240,2013-08-18 09:36:00
1:56 AM,46.4,37.4,71,29.65,10.0,Calm,Calm,-,N/A,,Mostly Cloudy,0,2013-08-18 09:56:00
2:16 AM,46.4,37.4,71,29.66,10.0,Calm,Calm,-,N/A,,Mostly Cloudy,0,2013-08-18 10:16:00
2:36 AM,46.4,37.4,71,29.66,10.0,NW,3.5,-,N/A,,Scattered Clouds,320,2013-08-18 10:36:00
2:56 AM,48.2,37.4,66,29.65,10.0,NNW,3.5,-,N/A,,Partly Cloudy,340,2013-08-18 10:56:00
3:16 AM,48.2,37.4,66,29.66,10.0,NNW,3.5,-,N/A,,Partly Cloudy,330,2013-08-18 11:16:00
3:36 AM,46.4,35.6,66,29.65,10.0,North,4.6,-,N/A,,Partly Cloudy,360,2013-08-18 11:36:00
3:56 AM,46.4,35.6,66,29.65,10.0,Calm,Calm,-,N/A,,Clear,0,2013-08-18 11:56:00
4:16 AM,44.6,35.6,71,29.65,10.0,NNE,3.5,-,N/A,,Clear,30,2013-08-18 12:16:00
4:36 AM,42.8,35.6,76,29.65,10.0,Calm,Calm,-,N/A,,Clear,0,2013-08-18 12:36:00
4:56 AM,44.6,35.6,71,29.65,10.0,NNE,3.5,-,N/A,,Clear,30,2013-08-18 12:56:00
5:16 AM,42.8,33.8,70,29.66,10.0,Calm,Calm,-,N/A,,Clear,0,2013-08-18 13:16:00
5:36 AM,41.0,35.6,81,29.65,10.0,Calm,Calm,-,N/A,,Clear,0,2013-08-18 13:36:00
5:56 AM,42.8,33.8,70,29.65,10.0,Calm,Calm,-,N/A,,Clear,0,2013-08-18 13:56:00
6:16 AM,42.8,35.6,76,29.65,10.0,Calm,Calm,-,N/A,,Clear,0,2013-08-18 14:16:00
6:36 AM,37.4,32.0,81,29.65,10.0,Calm,Calm,-,N/A,,Clear,0,2013-08-18 14:36:00
6:56 AM,37.4,33.8,87,29.65,10.0,West,3.5,-,N/A,,Clear,280,2013-08-18 14:56:00
7:16 AM,39.2,33.8,81,29.65,10.0,Calm,Calm,-,N/A,,Clear,0,2013-08-18 15:16:00
7:36 AM,39.2,33.8,81,29.64,10.0,Calm,Calm,-,N/A,,Clear,0,2013-08-18 15:36:00
7:56 AM,41.0,33.8,76,29.64,10.0,SW,3.5,-,N/A,,Clear,220,2013-08-18 15:56:00
8:16 AM,42.8,35.6,76,29.64,10.0,Calm,Calm,-,N/A,,Clear,0,2013-08-18 16:16:00
8:36 AM,44.6,35.6,71,29.64,10.0,Calm,Calm,-,N/A,,Clear,0,2013-08-18 16:36:00
8:56 AM,44.6,35.6,71,29.64,10.0,Calm,Calm,-,N/A,,Clear,0,2013-08-18 16:56:00
9:16 AM,46.4,37.4,71,29.64,10.0,Calm,Calm,-,N/A,,Clear,0,2013-08-18 17:16:00
9:36 AM,48.2,37.4,66,29.64,10.0,Calm,Calm,-,N/A,,Clear,0,2013-08-18 17:36:00
9:56 AM,50.0,39.2,66,29.64,10.0,Calm,Calm,-,N/A,,Clear,0,2013-08-18 17:56:00
10:16 AM,51.8,39.2,62,29.64,10.0,Calm,Calm,-,N/A,,Clear,0,2013-08-18 18:16:00
10:36 AM,51.8,39.2,62,29.64,10.0,Calm,Calm,-,N/A,,Clear,0,2013-08-18 18:36:00
10:56 AM,53.6,39.2,58,29.64,10.0,Calm,Calm,-,N/A,,Clear,0,2013-08-18 18:56:00
11:16 AM,53.6,39.2,58,29.64,10.0,Calm,Calm,-,N/A,,Clear,0,2013-08-18 19:16:00
11:36 AM,53.6,39.2,58,29.63,10.0,Calm,Calm,-,N/A,,Clear,0,2013-08-18 19:36:00
11:56 AM,55.4,39.2,54,29.63,10.0,Calm,Calm,-,N/A,,Clear,0,2013-08-18 19:56:00
12:16 PM,55.4,39.2,54,29.62,10.0,Calm,Calm,-,N/A,,Clear,0,2013-08-18 20:16:00
12:36 PM,55.4,39.2,54,29.62,10.0,Calm,Calm,-,N/A,,Clear,0,2013-08-18 20:36:00
12:56 PM,57.2,41.0,55,29.62,10.0,Calm,Calm,-,N/A,,Clear,0,2013-08-18 20:56:00
1:16 PM,59.0,42.8,55,29.62,10.0,South,4.6,-,N/A,,Clear,180,2013-08-18 21:16:00
1:36 PM,59.0,41.0,51,29.61,10.0,Calm,Calm,-,N/A,,Clear,0,2013-08-18 21:36:00
1:56 PM,60.8,39.2,45,29.61,10.0,Calm,Calm,-,N/A,,Clear,0,2013-08-18 21:56:00
2:16 PM,60.8,39.2,45,29.61,10.0,WSW,5.8,-,N/A,,Clear,250,2013-08-18 22:16:00
2:36 PM,60.8,39.2,45,29.61,10.0,West,9.2,-,N/A,,Clear,270,2013-08-18 22:36:00
2:56 PM,60.8,39.2,45,29.60,10.0,West,5.8,-,N/A,,Clear,260,2013-08-18 22:56:00
3:16 PM,62.6,39.2,42,29.60,10.0,West,9.2,-,N/A,,Clear,260,2013-08-18 23:16:00
3:36 PM,62.6,39.2,42,29.59,10.0,SE,4.6,-,N/A,,Clear,140,2013-08-18 23:36:00
3:56 PM,62.6,39.2,42,29.59,10.0,East,3.5,-,N/A,,Clear,80,2013-08-18 23:56:00
4:16 PM,62.6,39.2,42,29.59,10.0,North,4.6,-,N/A,,Clear,350,2013-08-19 00:16:00
4:36 PM,62.6,39.2,42,29.58,10.0,WNW,5.8,-,N/A,,Clear,290,2013-08-19 00:36:00
4:56 PM,62.6,39.2,42,29.58,10.0,WNW,6.9,-,N/A,,Clear,290,2013-08-19 00:56:00
5:16 PM,62.6,37.4,39,29.58,10.0,West,5.8,-,N/A,,Clear,270,2013-08-19 01:16:00
5:36 PM,60.8,39.2,45,29.58,10.0,Calm,Calm,-,N/A,,Clear,0,2013-08-19 01:36:00
5:56 PM,60.8,37.4,42,29.58,10.0,WNW,8.1,-,N/A,,Clear,290,2013-08-19 01:56:00
6:16 PM,60.8,39.2,45,29.58,10.0,WNW,8.1,-,N/A,,Clear,290,2013-08-19 02:16:00
6:36 PM,60.8,39.2,45,29.58,10.0,West,6.9,-,N/A,,Clear,280,2013-08-19 02:36:00
6:56 PM,60.8,39.2,45,29.57,10.0,WNW,4.6,-,N/A,,Clear,290,2013-08-19 02:56:00
7:16 PM,60.8,39.2,45,29.57,10.0,West,4.6,-,N/A,,Clear,280,2013-08-19 03:16:00
7:36 PM,59.0,39.2,48,29.57,10.0,West,3.5,-,N/A,,Clear,280,2013-08-19 03:36:00
7:56 PM,57.2,41.0,55,29.57,10.0,West,3.5,-,N/A,,Clear,280,2013-08-19 03:56:00
8:16 PM,57.2,41.0,55,29.57,10.0,West,3.5,-,N/A,,Clear,280,2013-08-19 04:16:00
8:36 PM,57.2,41.0,55,29.57,10.0,WNW,3.5,-,N/A,,Clear,290,2013-08-19 04:36:00
8:56 PM,57.2,41.0,55,29.56,10.0,West,3.5,-,N/A,,Partly Cloudy,280,2013-08-19 04:56:00
9:16 PM,55.4,42.8,63,29.57,10.0,West,3.5,-,N/A,,Mostly Cloudy,280,2013-08-19 05:16:00
9:36 PM,55.4,41.0,58,29.57,10.0,WNW,4.6,-,N/A,,Overcast,290,2013-08-19 05:36:00
9:56 PM,55.4,42.8,63,29.56,10.0,WNW,3.5,-,N/A,,Overcast,290,2013-08-19 05:56:00
10:16 PM,55.4,42.8,63,29.56,10.0,Calm,Calm,-,N/A,,Overcast,0,2013-08-19 06:16:00
10:36 PM,53.6,41.0,62,29.57,10.0,Calm,Calm,-,N/A,,Overcast,0,2013-08-19 06:36:00
10:56 PM,53.6,42.8,67,29.57,10.0,NW,3.5,-,N/A,,Overcast,310,2013-08-19 06:56:00
11:16 PM,51.8,42.8,71,29.57,10.0,Calm,Calm,-,N/A,,Overcast,0,2013-08-19 07:16:00
11:36 PM,51.8,39.2,62,29.57,10.0,Calm,Calm,-,N/A,,Overcast,0,2013-08-19 07:36:00
11:56 PM,51.8,39.2,62,29.56,10.0,North,3.5,-,N/A,,Overcast,360,2013-08-19 07:56:00